Flag for Germany Weather past 2 weeks in Bergheim, North Rhine-Westphalia, Germany

Now
52 °F

Passing clouds.


Feels Like: 48 °F
Forecast: 42 / 49 °F
Wind: 12 mph from Southwest

Location: Noervenich

Current Time: Mar 29, 2015 at 3:53:02 AM

Latest Report: Mar 29, 2015 at 3:20 AM


Visibility: N/A

Pressure: 29.77 "Hg

Humidity: 82%

Dew point: 46 °F

Location of BergheimLocation

Historic Weather in Bergheim — Graph

°F

Bergheim temperature yesterday

Maximum temperature yesterday: 54 °F (at 11:20 AM)
Minimum temperature yesterday: 32 °F (at 5:20 AM)
Average temperature yesterday: 46 °F

Past Weeks' High & Low Weather Summary

 TemperatureHumidityPressure
High63 °F (Mar 17, 4:20 PM)100% (Mar 14, 7:20 PM)30.36 "Hg (Mar 14, 7:20 PM)
Low30 °F (Mar 16, 5:20 AM)40% (Mar 26, 1:20 PM)29.65 "Hg (Mar 25, 12:20 AM)
Average43 °F80%30.10 "Hg
* Reported Mar 14 1:20 AM — Mar 29 1:20 AM, Bergheim, Weather by CustomWeather, © 2015

Note: Actual official high and low records may vary slightly from our data, if they occured in-between our weather recording intervals... More about our weather records

Advertising

Bergheim weather history for previous 24 hours

 ConditionsComfort  
Time TempWeatherWind HumidityBarometerVisibility
1:20 AM
Sun, Mar 29
54 °FPartly cloudy.15 mph77%29.77 "HgN/A
12:20 AM54 °FPartly cloudy.9 mph88%29.80 "HgN/A
11:20 PM
Sat, Mar 28
54 °FPartly cloudy.5 mph82%29.83 "HgN/A
10:20 PM54 °FPartly cloudy.6 mph77%29.83 "HgN/A
9:20 PM52 °FMostly cloudy.6 mph82%29.86 "HgN/A
8:20 PM52 °FLight rain. Mostly cloudy.3 mph82%29.89 "HgN/A
7:20 PM52 °FCool.3 mph82%29.89 "HgN/A
6:20 PM52 °FCool.9 mph77%29.89 "HgN/A
5:20 PM50 °FCool.8 mph82%29.92 "HgN/A
4:20 PM48 °FCool.5 mph87%29.95 "HgN/A
3:20 PM48 °FCool.5 mph87%29.98 "Hg2 mi
2:20 PM48 °FCool.5 mph87%30.01 "Hg4 mi
1:20 PM50 °FCool.6 mph76%30.01 "HgN/A
12:20 PM54 °FCool.8 mph58%30.04 "HgN/A
11:20 AM54 °FPartly sunny.7 mph51%30.07 "HgN/A
10:20 AM52 °FBroken clouds.7 mph50%30.09 "HgN/A
9:20 AM48 °FScattered clouds.5 mph62%30.12 "HgN/A
8:20 AM45 °FScattered clouds.5 mph66%30.12 "HgN/A
7:20 AM41 °FPartly sunny.2 mph76%30.15 "HgN/A
6:20 AM37 °FPartly sunny.2 mph81%30.15 "HgN/A
5:20 AM32 °FPassing clouds.1 mph93%30.18 "HgN/A
4:20 AM34 °FPassing clouds.No wind87%30.18 "HgN/A
3:20 AM39 °FPassing clouds.2 mph81%30.18 "HgN/A
Weather by CustomWeather, © 2015

See weather overviewHow to use our weather pages